Sky Queen — 3EHV9 — position and weather

sailwx.info

Track history (hours):
 
Tides and Currents Weather Stations Pressure Air Temp Water Temp Dewpoint Dewpoint Depression Visibility Wind Speed Wind Dir Waves Ship Positions

Sky Queen

Last reported at 2015-Jul-09 00:19 UTC. Time now 2015-Jul-30 02:02 UTC.
Position N 34°36' E 135°04'.
Warning: this ship's position is 21 days out of date.

Length 89 m; draft 5.2 m.

Type: Cargo ship. MMSI: 372259000.

Date/timePositionNaut miles runAvg speedWind from/ knotsBaromVisibWave heightAir tempDewpointWater temp
2015-Jul-09 00:19N 34°36' E 135°04'4 4.6
2015-Jul-08 23:32N 34°32' E 135°04'232 6.0
2015-Jul-07 08:33N 35°07' E 139°44'9 8.3
2015-Jul-07 07:29N 35°16' E 139°46'8 8.3
2015-Jul-07 06:33N 35°23' E 139°42'8 7.8
2015-Jul-07 05:33N 35°29' E 139°48'4 2.7
2015-Jul-07 04:14N 35°30' E 139°44'0 0.0
2015-Jul-07 03:31N 35°30' E 139°44'0 0.0
2015-Jul-07 02:10N 35°30' E 139°44'0 0.0
2015-Jul-07 01:31N 35°30' E 139°44'0 0.0
2015-Jul-07 00:31N 35°30' E 139°44'0 0.0
2015-Jul-06 23:31N 35°30' E 139°44'0 0.0
2015-Jul-06 22:32N 35°30' E 139°44'0 0.0
2015-Jul-06 21:28N 35°30' E 139°44'0 0.0
2015-Jul-06 20:31N 35°30' E 139°44'0 0.0
2015-Jul-06 19:31N 35°30' E 139°44'0 0.0
2015-Jul-06 18:28N 35°30' E 139°44'0 0.1
2015-Jul-06 17:31N 35°30' E 139°44'0 0.0
2015-Jul-06 16:31N 35°30' E 139°44'0 0.0
2015-Jul-06 15:31N 35°30' E 139°44'0 0.0
2015-Jul-06 14:28N 35°30' E 139°44'0 0.0
2015-Jul-06 13:31N 35°30' E 139°44'0 0.0
2015-Jul-06 12:31N 35°30' E 139°44'0 0.0
2015-Jul-06 11:25N 35°30' E 139°44'0 0.0
2015-Jul-06 10:28N 35°30' E 139°44'0 0.0
2015-Jul-06 09:25N 35°30' E 139°44'0 0.0
2015-Jul-06 08:31N 35°30' E 139°44'0 0.0
2015-Jul-06 06:25N 35°30' E 139°44'0 0.0
2015-Jul-06 05:13N 35°30' E 139°44'0 0.0
2015-Jul-06 04:07N 35°30' E 139°44'0 0.0
2015-Jul-06 03:25N 35°30' E 139°44'0 0.0
2015-Jul-06 02:19N 35°30' E 139°44'0 0.0
2015-Jul-06 01:31N 35°30' E 139°44'0 0.0
2015-Jul-06 00:25N 35°30' E 139°44'0 0.0
2015-Jul-05 23:25N 35°30' E 139°44'0 0.0
2015-Jul-05 22:31N 35°30' E 139°44'0 0.0
2015-Jul-05 21:31N 35°30' E 139°44'0 0.0
2015-Jul-05 20:28N 35°30' E 139°44'0 0.0
2015-Jul-05 19:28N 35°30' E 139°44'0 0.0
2015-Jul-05 18:31N 35°30' E 139°44'0 0.0
2015-Jul-05 17:25N 35°30' E 139°44'0 0.0
2015-Jul-05 16:31N 35°30' E 139°44'0 0.0
2015-Jul-05 15:25N 35°30' E 139°44'0 0.0
2015-Jul-05 14:25N 35°30' E 139°44'0 0.0
2015-Jul-05 13:28N 35°30' E 139°44'0 0.0
2015-Jul-05 12:28N 35°30' E 139°44'0 0.0
2015-Jul-05 11:28N 35°30' E 139°44'0 0.0
2015-Jul-05 10:31N 35°30' E 139°44'0 0.0
2015-Jul-05 09:25N 35°30' E 139°44'0 0.0
2015-Jul-05 08:31N 35°30' E 139°44'0 0.0
2015-Jul-05 05:19N 35°30' E 139°44'0 0.0
2015-Jul-04 23:25N 35°30' E 139°44'0 0.0
2015-Jul-04 22:31N 35°30' E 139°44'0 0.0
2015-Jul-04 21:31N 35°30' E 139°44'0 0.0
2015-Jul-04 20:31N 35°30' E 139°44'0 0.0
2015-Jul-04 19:31N 35°30' E 139°44'0 0.0
2015-Jul-04 18:31N 35°30' E 139°44'0 0.0
2015-Jul-04 17:31N 35°30' E 139°44'0 0.0
2015-Jul-04 14:13N 35°30' E 139°44'0 0.0
2015-Jul-04 13:25N 35°30' E 139°44'0 0.0
2015-Jul-04 12:31N 35°30' E 139°44'0 0.0
2015-Jul-04 11:28N 35°30' E 139°44'0 0.0
2015-Jul-04 10:33N 35°30' E 139°44'0 0.0
2015-Jul-04 09:33N 35°30' E 139°44'0 0.0
2015-Jul-04 08:33N 35°30' E 139°44'0 0.0
2015-Jul-04 07:33N 35°30' E 139°44'0 0.0
2015-Jul-04 06:32N 35°30' E 139°44'0 0.0
2015-Jul-04 05:33N 35°30' E 139°44'0 0.0
2015-Jul-04 04:33N 35°30' E 139°44'0 0.0
2015-Jul-04 03:33N 35°30' E 139°44'0 0.0
2015-Jul-04 02:33N 35°30' E 139°44'0 0.0
2015-Jul-04 01:33N 35°30' E 139°44'0 0.0
2015-Jul-04 00:32N 35°30' E 139°44'0 0.0
2015-Jul-03 23:33N 35°30' E 139°44'0 0.0
2015-Jul-03 22:33N 35°30' E 139°44'0 0.0
2015-Jul-03 21:33N 35°30' E 139°44'0 0.0
2015-Jul-03 20:33N 35°30' E 139°44'0 0.0
2015-Jul-03 19:33N 35°30' E 139°44'0 0.0
2015-Jul-03 18:33N 35°30' E 139°44'0 0.0
2015-Jul-03 17:33N 35°30' E 139°44'0 0.0
2015-Jul-03 16:33N 35°30' E 139°44'0 0.0
2015-Jul-03 15:33N 35°30' E 139°44'0 0.0
2015-Jul-03 14:33N 35°30' E 139°44'0 0.0
2015-Jul-03 13:33N 35°30' E 139°44'0 0.0
2015-Jul-03 12:33N 35°30' E 139°44'0 0.0
2015-Jul-03 11:33N 35°30' E 139°44'0 0.0
2015-Jul-03 10:33N 35°30' E 139°44'3 2.8
2015-Jul-03 09:33N 35°27' E 139°43'6 5.7
2015-Jul-03 08:33N 35°22' E 139°46'9 8.1
2015-Jul-03 07:29N 35°14' E 139°47'9 9.4
2015-Jul-03 06:33N 35°05' E 139°45'241 7.5
2015-Jul-01 22:33N 34°13' E 134°59'17 7.8
2015-Jul-01 20:23N 34°30' E 135°01'  
Track history (hours):
 
Tides and Currents Weather Stations Pressure Air Temp Water Temp Dewpoint Dewpoint Depression Visibility Wind Speed Wind Dir Waves Ship Positions

Sky Queen

Last reported at 2015-Jul-09 00:19 UTC. Time now 2015-Jul-30 02:02 UTC.
Position N 34°36' E 135°04'.
Warning: this ship's position is 21 days out of date.

Length 89 m; draft 5.2 m.

Type: Cargo ship. MMSI: 372259000.

Date/timePositionNaut miles runAvg speedWind from/ knotsBaromVisibWave heightAir tempDewpointWater temp
2015-Jul-09 00:19N 34°36' E 135°04'4 4.6
2015-Jul-08 23:32N 34°32' E 135°04'232 6.0
2015-Jul-07 08:33N 35°07' E 139°44'9 8.3
2015-Jul-07 07:29N 35°16' E 139°46'8 8.3
2015-Jul-07 06:33N 35°23' E 139°42'8 7.8
2015-Jul-07 05:33N 35°29' E 139°48'4 2.7
2015-Jul-07 04:14N 35°30' E 139°44'0 0.0
2015-Jul-07 03:31N 35°30' E 139°44'0 0.0
2015-Jul-07 02:10N 35°30' E 139°44'0 0.0
2015-Jul-07 01:31N 35°30' E 139°44'0 0.0
2015-Jul-07 00:31N 35°30' E 139°44'0 0.0
2015-Jul-06 23:31N 35°30' E 139°44'0 0.0
2015-Jul-06 22:32N 35°30' E 139°44'0 0.0
2015-Jul-06 21:28N 35°30' E 139°44'0 0.0
2015-Jul-06 20:31N 35°30' E 139°44'0 0.0
2015-Jul-06 19:31N 35°30' E 139°44'0 0.0
2015-Jul-06 18:28N 35°30' E 139°44'0 0.1
2015-Jul-06 17:31N 35°30' E 139°44'0 0.0
2015-Jul-06 16:31N 35°30' E 139°44'0 0.0
2015-Jul-06 15:31N 35°30' E 139°44'0 0.0
2015-Jul-06 14:28N 35°30' E 139°44'0 0.0
2015-Jul-06 13:31N 35°30' E 139°44'0 0.0
2015-Jul-06 12:31N 35°30' E 139°44'0 0.0
2015-Jul-06 11:25N 35°30' E 139°44'0 0.0
2015-Jul-06 10:28N 35°30' E 139°44'0 0.0
2015-Jul-06 09:25N 35°30' E 139°44'0 0.0
2015-Jul-06 08:31N 35°30' E 139°44'0 0.0
2015-Jul-06 06:25N 35°30' E 139°44'0 0.0
2015-Jul-06 05:13N 35°30' E 139°44'0 0.0
2015-Jul-06 04:07N 35°30' E 139°44'0 0.0
2015-Jul-06 03:25N 35°30' E 139°44'0 0.0
2015-Jul-06 02:19N 35°30' E 139°44'0 0.0
2015-Jul-06 01:31N 35°30' E 139°44'0 0.0
2015-Jul-06 00:25N 35°30' E 139°44'0 0.0
2015-Jul-05 23:25N 35°30' E 139°44'0 0.0
2015-Jul-05 22:31N 35°30' E 139°44'0 0.0
2015-Jul-05 21:31N 35°30' E 139°44'0 0.0
2015-Jul-05 20:28N 35°30' E 139°44'0 0.0
2015-Jul-05 19:28N 35°30' E 139°44'0 0.0
2015-Jul-05 18:31N 35°30' E 139°44'0 0.0
2015-Jul-05 17:25N 35°30' E 139°44'0 0.0
2015-Jul-05 16:31N 35°30' E 139°44'0 0.0
2015-Jul-05 15:25N 35°30' E 139°44'0 0.0
2015-Jul-05 14:25N 35°30' E 139°44'0 0.0
2015-Jul-05 13:28N 35°30' E 139°44'0 0.0
2015-Jul-05 12:28N 35°30' E 139°44'0 0.0
2015-Jul-05 11:28N 35°30' E 139°44'0 0.0
2015-Jul-05 10:31N 35°30' E 139°44'0 0.0
2015-Jul-05 09:25N 35°30' E 139°44'0 0.0
2015-Jul-05 08:31N 35°30' E 139°44'0 0.0
2015-Jul-05 05:19N 35°30' E 139°44'0 0.0
2015-Jul-04 23:25N 35°30' E 139°44'0 0.0
2015-Jul-04 22:31N 35°30' E 139°44'0 0.0
2015-Jul-04 21:31N 35°30' E 139°44'0 0.0
2015-Jul-04 20:31N 35°30' E 139°44'0 0.0
2015-Jul-04 19:31N 35°30' E 139°44'0 0.0
2015-Jul-04 18:31N 35°30' E 139°44'0 0.0
2015-Jul-04 17:31N 35°30' E 139°44'0 0.0
2015-Jul-04 14:13N 35°30' E 139°44'0 0.0
2015-Jul-04 13:25N 35°30' E 139°44'0 0.0
2015-Jul-04 12:31N 35°30' E 139°44'0 0.0
2015-Jul-04 11:28N 35°30' E 139°44'0 0.0
2015-Jul-04 10:33N 35°30' E 139°44'0 0.0
2015-Jul-04 09:33N 35°30' E 139°44'0 0.0
2015-Jul-04 08:33N 35°30' E 139°44'0 0.0
2015-Jul-04 07:33N 35°30' E 139°44'0 0.0
2015-Jul-04 06:32N 35°30' E 139°44'0 0.0
2015-Jul-04 05:33N 35°30' E 139°44'0 0.0
2015-Jul-04 04:33N 35°30' E 139°44'0 0.0
2015-Jul-04 03:33N 35°30' E 139°44'0 0.0
2015-Jul-04 02:33N 35°30' E 139°44'0 0.0
2015-Jul-04 01:33N 35°30' E 139°44'0 0.0
2015-Jul-04 00:32N 35°30' E 139°44'0 0.0
2015-Jul-03 23:33N 35°30' E 139°44'0 0.0
2015-Jul-03 22:33N 35°30' E 139°44'0 0.0
2015-Jul-03 21:33N 35°30' E 139°44'0 0.0
2015-Jul-03 20:33N 35°30' E 139°44'0 0.0
2015-Jul-03 19:33N 35°30' E 139°44'0 0.0
2015-Jul-03 18:33N 35°30' E 139°44'0 0.0
2015-Jul-03 17:33N 35°30' E 139°44'0 0.0
2015-Jul-03 16:33N 35°30' E 139°44'0 0.0
2015-Jul-03 15:33N 35°30' E 139°44'0 0.0
2015-Jul-03 14:33N 35°30' E 139°44'0 0.0
2015-Jul-03 13:33N 35°30' E 139°44'0 0.0
2015-Jul-03 12:33N 35°30' E 139°44'0 0.0
2015-Jul-03 11:33N 35°30' E 139°44'0 0.0
2015-Jul-03 10:33N 35°30' E 139°44'3 2.8
2015-Jul-03 09:33N 35°27' E 139°43'6 5.7
2015-Jul-03 08:33N 35°22' E 139°46'9 8.1
2015-Jul-03 07:29N 35°14' E 139°47'9 9.4
2015-Jul-03 06:33N 35°05' E 139°45'241 7.5
2015-Jul-01 22:33N 34°13' E 134°59'17 7.8
2015-Jul-01 20:23N 34°30' E 135°01'  

Dump ship's entire track history